{"data":{"norad_id":57749,"intl_designator":"2023-131T","name":"STARLINK-30366","alt_names":[],"object_type":"PAYLOAD","status":"ACTIVE","operator":null,"country":"US","launch_date":"2023-09-01","launch_site_code":"AFETR","launch_vehicle":null,"mission":null,"orbit_class":"UNKNOWN","rcs_meters":null,"size_class":null,"mass_kg":null,"dimensions":null,"purposes":["comms"],"wikipedia_slug":null,"has_3d_model":false,"image_url":null,"decayed_at":null,"tle_current":{"epoch":"2026-05-25T03:48:49.118976Z","epoch_age_seconds":75375,"freshness":"FRESH","line1":"1 57749U 23131T   26145.15890184  .00000479  00000+0  28144-4 0  9998","line2":"2 57749  43.0028 103.8218 0001645 277.9223  82.1442 15.25911644151570","mean_motion":15.25911644,"eccentricity":0.0001645,"inclination_deg":43.0028,"raan_deg":103.8218,"arg_perigee_deg":277.9223,"mean_anomaly_deg":82.1442,"bstar":2.8144e-5,"rev_number":15157,"period_min":94.369815294496,"perigee_km":486.91981756194,"apogee_km":489.17879285635,"semimajor_km":6866.1863052091,"source":"CELESTRAK","updated_at":"2026-05-25T13:38:18.402356Z"}}}